{"data":{"norad_id":47911,"intl_designator":"2021-021BD","name":"STARLINK-2371","alt_names":[],"object_type":"PAYLOAD","status":"ACTIVE","operator":null,"country":"US","launch_date":"2021-03-14","launch_site_code":"AFETR","launch_vehicle":null,"mission":null,"orbit_class":"UNKNOWN","rcs_meters":null,"size_class":null,"mass_kg":null,"dimensions":null,"purposes":["comms"],"wikipedia_slug":null,"has_3d_model":false,"image_url":null,"decayed_at":null,"tle_current":{"epoch":"2026-09-20T02:46:11.671968Z","epoch_age_seconds":62479,"freshness":"FRESH","line1":"1 47911U 21021BD  26263.11541287  .00022179  00000+0  70397-3 0  9995","line2":"2 47911  53.1580  96.1081 0000511  70.0941 290.0116 15.32615500305701","mean_motion":15.326155,"eccentricity":5.11e-5,"inclination_deg":53.158,"raan_deg":96.1081,"arg_perigee_deg":70.0941,"mean_anomaly_deg":290.0116,"bstar":0.00070397,"rev_number":30570,"period_min":93.957029665953,"perigee_km":467.66245771614,"apogee_km":468.36213417418,"semimajor_km":6846.1492959452,"source":"CELESTRAK","updated_at":"2026-09-20T09:00:38.757912Z"}}}